Hourly Data Report for April 15, 2020

TORONTO CITY
ONTARIO
Current Station Operator: ECCC - MSC

43°40'00.000" N
79°24'00.000" W
112.50 m
6158355
71508
XTO

Download Data

Hourly Data (April 2020)
Hourly Data Report for April 15, 2020
TIME
LST
Temp Definition
°C
Dew Point Definition
°C
Rel Hum Definition
%
Precip. Amount Definition
mm

Wind Dir Definition
10's deg

Wind Spd Definition
km/h
Visibility Definition
km
Stn Press Definition
kPa
Hmdx Definition


Wind Chill Definition


Weather Definition


00:00 0.7 -7.9 53 0.0       100.33     LegendNANA
01:00 0.4 -7.8 54 0.0       100.31     LegendNANA
02:00 0.0 -7.5 57 0.0       100.26     LegendNANA
03:00 -0.5 -7.6 59 0.0       100.24     LegendNANA
04:00 -0.8 -7.3 61 0.0       100.21     LegendNANA
05:00 -0.9 -7.1 63 0.0       100.18     LegendNANA
06:00 -1.0 -7.6 61 0.0       100.19     LegendNANA
07:00 0.3 -7.5 56 0.0       100.19     LegendNANA
08:00 1.6 -7.1 52 0.0       100.18     LegendNANA
09:00 2.2 -7.7 48 0.0       100.13     LegendNANA
10:00 3.2 -8.4 42 0.2       100.08     LegendNANA
11:00 3.0 -6.5 50 0.0       100.04     LegendNANA
12:00 4.1 -8.3 40 0.0       100.02     LegendNANA
13:00 4.4 -7.2 42 0.3       99.97     LegendNANA
14:00 4.7 -8.2 39 0.2       99.93     LegendNANA
15:00 4.5 -9.9 34 0.2       99.89     LegendNANA
16:00 3.9 -8.4 40 0.0       99.92     LegendNANA
17:00 3.1 -7.8 45 0.2       99.95     LegendNANA
18:00 3.2 -11.6 33 0.0       99.98     LegendNANA
19:00 2.0 -7.9 48 0.0       100.06     LegendNANA
20:00 0.7 -8.0 52 0.0       100.17     LegendNANA
21:00 0.4 -7.9 54 0.0       100.27     LegendNANA
22:00 0.0 -10.8 44 0.0       100.31     LegendNANA
23:00 -0.6 -11.5 43 0.0       100.37     LegendNANA

Notes on Data Quality.

Legend

  • E = Estimated
  • M = Missing
  • NA = Not Available*
  • [empty] = Indicates an unobserved value
Date modified: